Location: Poughquag
(41.6090°N, 73.6820°W)
Time: 04:49:27
(UTC-04:00)

STARLINK-1358 - Pass Details

Date: 29 May 2020
Orbit: 549 x 550 km, 53.0° (Epoch: 26 September)

Event Time Altitude Azimuth Distance (km) Brightness Sun altitude
Exits shadow 03:05:18 - 290° (WNW) 2,477 6.8 -19.6°
Reaches altitude 10° 03:07:26 10° 307° (NW) 1,822 6.3 -19.4°
Maximum altitude 03:10:19 18° 351° (N) 1,384 6.2 -19.1°
Drops below altitude 10° 03:13:13 10° 35° (NE) 1,825 7.5 -18.8°
Sets 03:16:03 0° 55° (NE) 2,719 8.5 -18.5°
